Back to catalog

VENERA 2

AliveScienceVLEO
NORAD 1730·PAYLOAD·🇷🇺 Russia

Launched Nov 12, 1965 from Baikonur Cosmodrome

Loading…

Next Passes (next 24 hours)

TLE

StaleSource: Space-Track

Epoch: Nov 12, 1965, 07:34 UTC

1 01730U 65091  A 65316.31593551  .00087950 +19323-4 +00000-0 0  9996
2 01730 051.8844 133.0512 0082997 102.4729 258.4645 16.05105958000024

Track VENERA 2 in real time with AllMySat

Download on the App Store